Powrót do katalogu

STARLINK-30240

AktywnyŁącznośćVLEO
NORAD 57404·PAYLOAD·🇺🇸 United States

Wystrzelony Jul 20, 2023 z Vandenberg Space Force Base

Loading…

Następne Przeloty (najbliższe 24 godziny)

TLE

ŚwieżeSource: CelesTrak SupGP

Epoka: Sep 15, 2026, 01:12 UTC

1 57404C 23102A   26258.05048611  .00004375  00000+0  15844-3 0  2587
2 57404  43.0015 259.2000 0001754 261.9731 324.0340 15.27577579    11

Śledź STARLINK-30240 w czasie rzeczywistym z AllMySat

Download on the App Store